Wise, VA

3:41 PM EST on November 19, 2017 (GMT -0500)
Lonesome Pine

Weather History for KLNP - April, 2014

Change the Weather History Date:

Saturday, April 12, 2014

  Actual Average Record
Temperature  
Mean Temperature 62 °F -  
Max Temperature 73 °F 61 °F 75 °F (2015)
Min Temperature 50 °F 42 °F 28 °F (2012)
Degree Days  
Heating Degree Days 4    
Growing Degree Days 12 (Base 50)    
Moisture  
Dew Point 41 °F    
Average Humidity 46    
Maximum Humidity 72    
Minimum Humidity 27    
Precipitation  
Precipitation 0.00 in - - ()
Sea Level Pressure  
Sea Level Pressure 30.18 in    
Wind  
Wind Speed 6 mph (SSW)    
Max Wind Speed 16 mph    
Max Gust Speed 24 mph    
Visibility 10 miles    
Events      
Averages and records for this station are not official NWS values.
T = Trace of Precipitation, MM = Missing Value Source: NWS Daily Summary

Daily Weather History Graph

Daily Weather History Graph

Search for Another Location

Airport or City:

Trip Planner

Search our weather history database for the weather conditions in past years. The results will help you decide how hot, cold, wet, or windy it might be!

Date:

Astronomy

Apr. 12, 2014 Rise Set
Actual Time 7:00 AM EDT 8:02 PM EDT
Civil Twilight 6:33 AM EDT 8:28 PM EDT
Nautical Twilight 6:01 AM EDT 9:00 PM EDT
Astronomical Twilight 5:29 AM EDT 9:33 PM EDT
Moon 5:42 PM EDT (4/12) 5:22 AM EDT (4/12)
Length of Visible Light 13h 55m
Length of Day
13h 02m
Waxing Gibbous, 93% of the Moon is Illuminated
Apr 12
Waxing Gibbous
Apr 15
Full
Apr 22
Last Quarter
Apr 29
New
May 6
First Quarter

Hourly Weather History & Observations

Time (EDT) Temp. Dew Point Humidity Pressure Visibility Wind Dir Wind Speed Gust Speed Precip Events Conditions
12:15 AM 60.8 °F 37.4 °F 42% 30.17 in 10.0 mi WSW 5.8 mph - N/A   Clear
12:35 AM 59.0 °F 37.4 °F 45% 30.18 in 10.0 mi WSW 4.6 mph - N/A   Scattered Clouds
12:55 AM 59.0 °F 39.2 °F 48% 30.17 in 10.0 mi WSW 5.8 mph - N/A   Clear
1:15 AM 59.0 °F 41.0 °F 51% 30.17 in 10.0 mi WSW 5.8 mph - N/A   Clear
1:35 AM 57.2 °F 41.0 °F 55% 30.17 in 10.0 mi SW 5.8 mph - N/A   Clear
1:55 AM 55.4 °F 41.0 °F 58% 30.17 in 10.0 mi SW 5.8 mph - N/A   Clear
2:15 AM 55.4 °F 41.0 °F 58% 30.17 in 10.0 mi WSW 5.8 mph - N/A   Clear
2:35 AM 53.6 °F 41.0 °F 62% 30.17 in 10.0 mi WSW 4.6 mph - N/A   Clear
2:55 AM 53.6 °F 41.0 °F 62% 30.16 in 10.0 mi SSW 4.6 mph - N/A   Clear
3:15 AM 53.6 °F 41.0 °F 62% 30.16 in 10.0 mi South 4.6 mph - N/A   Clear
3:35 AM 53.6 °F 41.0 °F 62% 30.17 in 10.0 mi SW 3.5 mph - N/A   Clear
3:55 AM 53.6 °F 41.0 °F 62% 30.17 in 10.0 mi Calm Calm - N/A   Clear
4:15 AM 53.6 °F 41.0 °F 62% 30.17 in 10.0 mi Calm Calm - N/A   Clear
4:35 AM 53.6 °F 42.8 °F 67% 30.18 in 10.0 mi Calm Calm - N/A   Clear
4:55 AM 55.4 °F 42.8 °F 63% 30.18 in 10.0 mi West 3.5 mph - N/A   Clear
5:15 AM 53.6 °F 41.0 °F 62% 30.19 in 10.0 mi West 4.6 mph - N/A   Clear
5:35 AM 51.8 °F 41.0 °F 67% 30.20 in 10.0 mi West 3.5 mph - N/A   Clear
5:55 AM 51.8 °F 42.8 °F 71% 30.20 in 10.0 mi WSW 3.5 mph - N/A   Clear
6:15 AM 50.0 °F 41.0 °F 71% 30.21 in 10.0 mi South 3.5 mph - N/A   Clear
6:35 AM 53.6 °F 42.8 °F 67% 30.21 in 10.0 mi Calm Calm - N/A   Mostly Cloudy
6:55 AM 51.8 °F 42.8 °F 71% 30.22 in 10.0 mi SSW 4.6 mph - N/A   Scattered Clouds
7:15 AM 51.8 °F 42.8 °F 71% 30.23 in 10.0 mi WSW 5.8 mph - N/A   Clear
7:35 AM 51.8 °F 42.8 °F 71% 30.24 in 10.0 mi West 3.5 mph - N/A   Clear
7:55 AM 53.6 °F 44.6 °F 72% 30.25 in 10.0 mi WSW 5.8 mph - N/A   Clear
8:15 AM 55.4 °F 44.6 °F 67% 30.25 in 10.0 mi West 3.5 mph - N/A   Clear
8:35 AM 57.2 °F 44.6 °F 63% 30.26 in 10.0 mi Calm Calm - N/A   Clear
8:55 AM 59.0 °F 44.6 °F 59% 30.26 in 10.0 mi WSW 3.5 mph - N/A   Clear
9:15 AM 60.8 °F 44.6 °F 55% 30.27 in 10.0 mi West 4.6 mph - N/A   Clear
9:35 AM 60.8 °F 44.6 °F 55% 30.27 in 10.0 mi West 4.6 mph - N/A   Clear
9:55 AM 62.6 °F 44.6 °F 52% 30.27 in 10.0 mi West 3.5 mph - N/A   Clear
10:15 AM 62.6 °F 44.6 °F 52% 30.27 in 10.0 mi Calm Calm - N/A   Clear
10:35 AM 64.4 °F 44.6 °F 49% 30.27 in 10.0 mi WSW 4.6 mph - N/A   Clear
10:55 AM 64.4 °F 44.6 °F 49% 30.27 in 10.0 mi South 5.8 mph - N/A   Clear
11:15 AM 64.4 °F 42.8 °F 45% 30.27 in 10.0 mi Calm Calm - N/A   Clear
11:35 AM 68.0 °F 42.8 °F 40% 30.27 in 10.0 mi South 8.1 mph - N/A   Scattered Clouds
11:55 AM 68.0 °F 44.6 °F 43% 30.26 in 10.0 mi SSE 8.1 mph - N/A   Scattered Clouds
12:15 PM 68.0 °F 42.8 °F 40% 30.25 in 10.0 mi South 3.5 mph - N/A   Scattered Clouds
12:35 PM 69.8 °F 42.8 °F 38% 30.23 in 10.0 mi SSE 5.8 mph - N/A   Scattered Clouds
12:55 PM 69.8 °F 42.8 °F 38% 30.23 in 10.0 mi South 11.5 mph 16.1 mph N/A   Scattered Clouds
1:15 PM 69.8 °F 42.8 °F 38% 30.22 in 10.0 mi ESE 5.8 mph - N/A   Scattered Clouds
1:35 PM 71.6 °F 42.8 °F 35% 30.21 in 10.0 mi South 10.4 mph 17.3 mph N/A   Clear
1:55 PM 71.6 °F 41.0 °F 33% 30.21 in 10.0 mi ESE 3.5 mph 18.4 mph N/A   Clear
2:15 PM 73.4 °F 41.0 °F 31% 30.19 in 10.0 mi SSW 9.2 mph - N/A   Clear
2:35 PM 71.6 °F 41.0 °F 33% 30.19 in 10.0 mi SE 8.1 mph 16.1 mph N/A   Scattered Clouds
2:55 PM 71.6 °F 41.0 °F 33% 30.19 in 10.0 mi South 11.5 mph 16.1 mph N/A   Mostly Cloudy
3:15 PM 73.4 °F 41.0 °F 31% 30.18 in 10.0 mi SSW 11.5 mph 19.6 mph N/A   Scattered Clouds
3:35 PM 73.4 °F 39.2 °F 29% 30.16 in 10.0 mi SSW 12.7 mph 17.3 mph N/A   Scattered Clouds
3:55 PM 73.4 °F 39.2 °F 29% 30.15 in 10.0 mi South 12.7 mph 20.7 mph N/A   Clear
4:15 PM 73.4 °F 39.2 °F 29% 30.14 in 10.0 mi SSW 13.8 mph 21.9 mph N/A   Clear
4:35 PM 73.4 °F 39.2 °F 29% 30.13 in 10.0 mi South 12.7 mph 24.2 mph N/A   Clear
4:55 PM 73.4 °F 39.2 °F 29% 30.13 in 10.0 mi SSW 13.8 mph 24.2 mph N/A   Clear
5:15 PM 73.4 °F 39.2 °F 29% 30.12 in 10.0 mi SSW 11.5 mph - N/A   Scattered Clouds
5:35 PM 73.4 °F 39.2 °F 29% 30.12 in 10.0 mi SSW 16.1 mph 20.7 mph N/A   Scattered Clouds
5:55 PM 73.4 °F 39.2 °F 29% 30.12 in 10.0 mi South 15.0 mph 18.4 mph N/A   Clear
6:15 PM 73.4 °F 39.2 °F 29% 30.11 in 10.0 mi South 10.4 mph 16.1 mph N/A   Clear
6:35 PM 73.4 °F 39.2 °F 29% 30.11 in 10.0 mi SSW 6.9 mph - N/A   Clear
6:55 PM 73.4 °F 37.4 °F 27% 30.11 in 10.0 mi South 8.1 mph 17.3 mph N/A   Clear
7:15 PM 73.4 °F 39.2 °F 29% 30.11 in 10.0 mi SSW 8.1 mph - N/A   Clear
7:35 PM 71.6 °F 39.2 °F 31% 30.11 in 10.0 mi South 4.6 mph - N/A   Clear
7:55 PM 69.8 °F 37.4 °F 31% 30.11 in 10.0 mi South 8.1 mph - N/A   Clear
8:15 PM 69.8 °F 37.4 °F 31% 30.12 in 10.0 mi South 6.9 mph - N/A   Clear
8:35 PM 68.0 °F 39.2 °F 35% 30.12 in 10.0 mi South 4.6 mph - N/A   Clear
8:55 PM 66.2 °F 39.2 °F 37% 30.12 in 10.0 mi South 4.6 mph - N/A   Clear
9:15 PM 66.2 °F 39.2 °F 37% 30.12 in 10.0 mi South 3.5 mph - N/A   Clear
9:35 PM 68.0 °F 39.2 °F 35% 30.13 in 10.0 mi South 5.8 mph - N/A   Clear
9:55 PM 68.0 °F 37.4 °F 33% 30.14 in 10.0 mi South 9.2 mph - N/A   Clear
10:15 PM 68.0 °F 37.4 °F 33% 30.13 in 10.0 mi South 9.2 mph - N/A   Clear
10:35 PM 68.0 °F 37.4 °F 33% 30.13 in 10.0 mi South 11.5 mph 19.6 mph N/A   Clear
10:55 PM 68.0 °F 37.4 °F 33% 30.12 in 10.0 mi SSE 12.7 mph 16.1 mph N/A   Clear
11:15 PM 66.2 °F 37.4 °F 35% 30.12 in 10.0 mi South 11.5 mph 17.3 mph N/A   Clear
11:35 PM 66.2 °F 37.4 °F 35% 30.12 in 10.0 mi South 12.7 mph 17.3 mph N/A   Clear
11:55 PM 66.2 °F 35.6 °F 32% 30.12 in 10.0 mi South 11.5 mph 17.3 mph N/A   Clear